Regional Weather Roundup
Issued by NWS

Home | Current Version | Previous Version | Graphics & Text | Print | Product List | Glossary On
Versions: 1 2 3 4 5 6 7 8 9 10 11 12 13 14 15 16 17 18 19 20 21 22 23 24 25 26 27 28 29 30 31 32 33 34 35 36 37 38 39 40 41 42 43 44 45 46 47 48 49 50
000
ASUS43 KDMX 010607
RWRIA

WEATHER ROUNDUP FOR IOWA
NATIONAL WEATHER SERVICE DES MOINES IA
100 AM CDT WED OCT 01 2014

NOTE: "FAIR" INDICATES FEW OR NO CLOUDS BELOW 12,000 FEET WITH NO
SIGNIFICANT WEATHER AND/OR OBSTRUCTIONS TO VISIBILITY.

* - THESE STATIONS ARE NOT NWS STATIONS...THUS NOT UNDER NWS
QUALITY CONTROL.  THEY ALSO DO NOT REPORT WEATHER SUCH
AS PRECIPITATION OR FOG.

IAZ001>003-012>014-020>022-031>034-043>046-010700-
   NORTHWEST IOWA

CITY           SKY/WX    TMP DP  RH WIND       PRES   REMARKS
CARROLL *      LGT RAIN  59  59 100 SE8G14    29.82R
CHEROKEE *     CLOUDY    61  61 100 SE7       29.78S
DENISON *      CLOUDY    63  63 100 SE9       29.77F FOG
LE MARS *        N/A     63  61  94 SE8       29.76F
ORANGE CITY *  CLOUDY    63  61  94 S6        29.77S FOG
SHELDON *      CLOUDY    61  61 100 SE13G20   29.76F
SIOUX CITY     CLOUDY    63  61  93 SE8       29.76S
6HR MIN TEMP:  61; 6HR MAX TEMP:  67;

SPENCER        CLOUDY    60  57  89 SE12      29.78F
6HR MIN TEMP:  60; 6HR MAX TEMP:  61;

STORM LAKE *   MOCLDY    59  59 100 SE16      29.81R FOG
$$

IAZ055>058-069>071-079>083-090>094-010700-
   SOUTHWEST IOWA

CITY           SKY/WX    TMP DP  RH WIND       PRES   REMARKS
ATLANTIC *     HVY RAIN  63  63 100 NE6G13    29.80F
AUDUBON *      RAIN      61  55  82 SE8       29.82R
CLARINDA *     HVY RAIN  66  66 100 CALM      29.81R
COUNCIL BLFS * RAIN      64  64 100 SE13      29.79R
CRESTON *      CLOUDY    64  63  94 SE8       29.82F
HARLAN  *      LGT RAIN  63  63 100 SE7       29.84S
LAMONI         CLOUDY    66  61  84 E7        29.81F
6HR MIN TEMP:  65; 6HR MAX TEMP:  74; 6HR PCP: TRACE;

RED OAK *      HVY RAIN  66  64  94 SE9G17    29.79R
SHENANDOAH *   LGT RAIN  66  64  94 SE9G15    29.78F
$$

IAZ047>049-059>061-072>074-084-010700-
   CENTRAL IOWA

CITY           SKY/WX    TMP DP  RH WIND       PRES   REMARKS
AMES           CLOUDY    57  55  93 E7        29.84F
6HR MIN TEMP:  57; 6HR MAX TEMP:  65; 6HR PCP:  0.10;

ANKENY *       CLOUDY    61  55  82 SE12      29.83F
CHARITON *     CLOUDY    63  59  88 SE9       29.84S
DES MOINES     CLOUDY    65  56  72 SE8       29.83F
6HR MIN TEMP:  65; 6HR MAX TEMP:  69; 6HR PCP: TRACE;

GRINNELL*      CLOUDY    58  51  76 E13       29.87F
KNOXVILLE *    MOCLDY    61  55  82 SE9G16    29.83F
MARSHALLTOWN   CLOUDY    56  49  77 E10       29.87F
6HR MIN TEMP:  56; 6HR MAX TEMP:  61;

PELLA *        CLOUDY    60  54  80 SE12G17   29.86F
PERRY *        LGT RAIN  59  58  96 E8        29.83F
$$

IAZ004>006-015-016-023>025-035-036-010700-
   NORTH CENTRAL IOWA

CITY           SKY/WX    TMP DP  RH WIND       PRES   REMARKS
ALGONA *       PTCLDY    59  57  94 SE13      29.82F FOG
CLARION *      CLOUDY    57  55  94 E12G24    29.84F
ESTHERVILLE    CLOUDY    57  57 100 SE12      29.80F FOG
6HR MIN TEMP:  57; 6HR MAX TEMP:  60; 6HR PCP: TRACE;

FORT DODGE *   CLOUDY    57  54  88 SE15      29.82F
MASON CITY     CLOUDY    54  50  86 S13       29.89R
6HR MIN TEMP:  54; 6HR MAX TEMP:  61; 6HR PCP:  0.02;

FOREST CITY *  DRIZZLE   55  55 100 SE13      29.85F
IOWA FALLS *   CLOUDY    54  52  94 E8        29.88F
$$

IAZ007>011-017>019-026>030-037>042-050>054-066-010700-
   NORTHEAST IOWA

CITY           SKY/WX    TMP DP  RH WIND       PRES   REMARKS
CHARLES CITY * MOCLDY    52  46  82 SE12      29.91F
CLINTON *      PTCLDY    50  45  81 E10       30.00S
DECORAH *      MOCLDY    46  45  93 SE7       29.95S
MONTICELLO *   CLEAR     50  46  87 E10       29.95S
OELWEIN *      MOCLDY    50  46  87 SE6       29.95R
WATERLOO       CLOUDY    52  46  80 E14       29.90F
6HR MIN TEMP:  52; 6HR MAX TEMP:  61;

$$

IAZ064-065-067-068-078-010700-
   EAST CENTRAL IOWA

CITY           SKY/WX    TMP DP  RH WIND       PRES   REMARKS
IOWA CITY      MOCLDY    53  49  86 E8        29.93F
6HR MIN TEMP:  53; 6HR MAX TEMP:  62;

MT. PLEASANT * PTCLDY    56  49  77 E9        29.92S
MUSCATINE *    CLEAR     55  48  76 E8        29.94S
$$

IAZ062-063-075>077-085>089-095>099-010700-
   SOUTHEAST IOWA

CITY           SKY/WX    TMP DP  RH WIND       PRES   REMARKS
BURLINGTON     CLEAR     56  50  80 E12       29.92S
6HR MIN TEMP:  56; 6HR MAX TEMP:  67;

FAIRFIELD *    MOCLDY    57  52  82 E12       29.89F
FORT MADISON * CLEAR     59  52  77 E7        29.93R HAZE
KEOKUK *       CLEAR     59  54  82 E14G22    29.89F
OSKALOOSA *      N/A     57  53  85 E9G17     29.87F
CENTERVILLE *  CLEAR     61  59  94 E8        29.87S
OTTUMWA        MOCLDY    58  54  86 SE10      29.87F
6HR MIN TEMP:  58; 6HR MAX TEMP:  64;

WASHINGTON *   MOCLDY    55  50  82 E12G17    29.91F
$$

ABBREVIATIONS USED IN REMARKS
   TC - TEMPERATURES IN CELSIUS
  WCI - WIND CHILL INDEX
   HX - HEAT INDEX
  VSB - VISIBILITY
$$




USA.gov is the U.S. government's official web portal to all federal, state and local government web resources and services.